User: anonymous   Login
Location: Fiddletown
(38.4917°N, 120.6633°W)
Time: 04:52:52
(UTC-07:00)
Language:

Envisat - Orbit

View from above orbital plane
View from above orbital plane
View from above satellite
View from above satellite

Ground track
Ground track

The orbit data is extracted from the following two-line orbital elements,

1 27386U 02009A   15143.24304549  .00000127  00000-0  56177-4 0  9992
2 27386 098.3364 204.4181 0001125 073.4440 286.6860 14.37816057692445
Epoch (UTC): 23 May 2015 05:49:59
Eccentricity: 0.0001125
inclination: 98.3364°
perigee height: 765 km
apogee height: 766 km
right ascension of ascending node: 204.4181°
argument of perigee: 73.4440°
revolutions per day: 14.37816057
mean anomaly at epoch: 286.6860°
orbit number at epoch: 69244

The dashed part of the orbit path shows where the satellite is in the earth's shadow,  

DLR